TimePST,TemperatureF,Dew PointF,Humidity,Sea Level PressureIn,VisibilityMPH,Wind Direction,Wind SpeedMPH,Gust SpeedMPH,PrecipitationIn,Events,Conditions,WindDirDegrees,DateUTC
12:16 AM,42.8,39.2,87,30.00,2.5,East,5.8,-,0.09,Rain,Heavy Rain,80,2012-11-10 08:16:00
12:26 AM,41.0,39.2,93,30.00,5.0,East,4.6,-,0.11,Rain,Light Rain,80,2012-11-10 08:26:00
12:45 AM,42.8,39.2,87,30.00,10.0,East,5.8,-,0.11,,Overcast,100,2012-11-10 08:45:00
12:53 AM,41.0,39.9,96,30.02,10.0,East,3.5,-,0.11,,Overcast,100,2012-11-10 08:53:00
1:53 AM,39.0,39.0,100,30.03,10.0,ESE,4.6,-,N/A,,Mostly Cloudy,110,2012-11-10 09:53:00
2:53 AM,39.9,39.0,97,30.04,10.0,East,4.6,-,0.00,,Mostly Cloudy,90,2012-11-10 10:53:00
3:53 AM,37.9,37.9,100,30.05,9.0,Calm,Calm,-,N/A,,Partly Cloudy,0,2012-11-10 11:53:00
4:53 AM,39.0,39.0,100,30.07,10.0,Calm,Calm,-,0.01,Rain,Light Rain,0,2012-11-10 12:53:00
5:53 AM,37.9,37.9,100,30.07,10.0,Calm,Calm,-,0.00,,Mostly Cloudy,0,2012-11-10 13:53:00
6:53 AM,37.0,37.0,100,30.08,10.0,East,3.5,-,N/A,,Partly Cloudy,100,2012-11-10 14:53:00
7:53 AM,39.0,37.9,96,30.11,10.0,ESE,3.5,-,N/A,,Mostly Cloudy,120,2012-11-10 15:53:00
8:53 AM,43.0,39.9,89,30.13,10.0,SE,4.6,-,N/A,,Partly Cloudy,130,2012-11-10 16:53:00
9:53 AM,46.9,39.0,74,30.15,10.0,South,3.5,-,N/A,,Mostly Cloudy,170,2012-11-10 17:53:00
10:53 AM,48.9,41.0,74,30.17,10.0,NW,3.5,-,N/A,,Scattered Clouds,310,2012-11-10 18:53:00
11:53 AM,50.0,39.0,66,30.17,10.0,West,3.5,-,N/A,,Clear,280,2012-11-10 19:53:00
12:53 PM,50.0,39.9,68,30.18,10.0,West,5.8,-,N/A,,Partly Cloudy,280,2012-11-10 20:53:00
1:53 PM,50.0,39.9,68,30.19,10.0,West,6.9,-,N/A,,Partly Cloudy,280,2012-11-10 21:53:00
2:53 PM,50.0,41.0,71,30.18,10.0,Variable,3.5,-,N/A,,Clear,0,2012-11-10 22:53:00
3:53 PM,50.0,41.0,71,30.19,10.0,West,3.5,-,N/A,,Clear,260,2012-11-10 23:53:00
4:53 PM,48.0,41.0,77,30.20,10.0,Calm,Calm,-,N/A,,Clear,0,2012-11-11 00:53:00
5:53 PM,41.0,39.9,96,30.22,10.0,ESE,3.5,-,N/A,,Clear,110,2012-11-11 01:53:00
6:53 PM,39.9,39.0,97,30.24,10.0,Calm,Calm,-,N/A,,Clear,0,2012-11-11 02:53:00
9:53 PM,39.9,37.9,93,30.28,10.0,ESE,4.6,-,N/A,,Clear,120,2012-11-11 05:53:00
10:53 PM,39.9,37.0,89,30.28,10.0,ESE,3.5,-,N/A,,Clear,110,2012-11-11 06:53:00
11:53 PM,39.0,37.0,93,30.29,10.0,ESE,4.6,-,N/A,,Clear,110,2012-11-11 07:53:00